Suleyman Demirel current weather conditions

sailwx.info

Wind from 350 at 13 knots

Air temperature -1.0° C
Visibility: greater than 5.4 NM
Dewpoint -7.0° C

Last reported at 2020-Jan-21 04:50 UTC.
Time now 2020-Jan-21 05:55 UTC

Location: N 37°52' E 030°23'.
View on Google Maps.

See reports from other nearby stations

  
Tides and Currents Weather Stations Pressure Air Temp Water Temp Dewpoint Dewpoint Depression Visibility Wind Speed Wind Dir Waves Ship Positions
date/time (UTC)wind fromknots sea level pressurealtimeterstation pressurevisibilityair tempwater tempwave heightnotes
2020-Jan-21 04:50 350 13 5.4-1.0
2020-Jan-21 04:20 340 13 5.4-1.0
2020-Jan-21 03:50 350 14 5.4-1.0
2020-Jan-21 03:20 340 13 5.4-1.0
2020-Jan-21 02:50 340 13 5.4-2.0
2020-Jan-21 02:20 350 15 5.4-1.0
2020-Jan-21 01:50 350 13 5.4-1.0
2020-Jan-21 01:20 350 15 5.4-1.0
2020-Jan-21 00:50 360 17 5.4-0.0
2020-Jan-21 00:20 010 14 5.4-0.0
2020-Jan-20 23:50 350 14 5.4-0.0
2020-Jan-20 23:20 350 18 5.4-0.0
2020-Jan-20 22:50 360 18 5.4-0.0
2020-Jan-20 22:20 360 24 5.4-0.0
2020-Jan-20 21:50 360 18 5.4 1.0
2020-Jan-20 21:20 330 20 5.4-0.0
2020-Jan-20 20:50 340 15 5.4 1.0
2020-Jan-20 20:20 340 19 5.4 1.0
2020-Jan-20 19:50 340 20 5.4 1.0
2020-Jan-20 19:20 340 17 5.4 1.0
2020-Jan-20 18:50 340 14 5.4 1.0
2020-Jan-20 18:20 350 8 5.4 1.0
2020-Jan-20 17:50 010 13 5.4 2.0
2020-Jan-20 17:20 340 14 5.4 1.0
2020-Jan-20 16:50 330 18 5.4 1.0
2020-Jan-20 16:20 350 11 5.4-0.0
2020-Jan-20 15:50 350 12 5.4 1.0
2020-Jan-20 15:20 350 13 5.4 1.0
2020-Jan-20 14:50 360 11 5.4 2.0
2020-Jan-20 14:20 360 13 5.4 2.0
2020-Jan-20 13:50 360 14 5.4 2.0
2020-Jan-20 13:20 360 15 5.4 3.0
2020-Jan-20 12:50 340 15 5.4 2.0
2020-Jan-20 12:20 350 17 5.4 4.0
2020-Jan-20 11:50 320 17 5.4 3.0
2020-Jan-20 11:20 320 17 5.4 2.0
2020-Jan-20 10:50 310 19 5.4 2.0
2020-Jan-20 10:20 320 18 5.4 2.0
2020-Jan-20 09:50 320 17 5.4 2.0
2020-Jan-20 09:20 320 13 5.4 3.0
2020-Jan-20 08:50 330 13 5.4 2.0
2020-Jan-20 08:20 320 12 5.4 1.0
2020-Jan-20 07:50 330 13 5.4-0.0
2020-Jan-20 07:20 340 8 5.4-0.0
2020-Jan-20 06:50 340 13 5.4-1.0
2020-Jan-20 06:20 340 12 5.4-3.0
2020-Jan-20 05:50 340 12 5.4-4.0
2020-Jan-20 05:20 330 13 5.4-4.0
2020-Jan-20 04:50 330 14 5.4-5.0
2020-Jan-20 04:20 5.4-8.0
2020-Jan-20 03:50 060 4 5.4-7.0
2020-Jan-20 03:20 040 2 5.4-8.0
2020-Jan-20 02:50 040 4 5.4-6.0
2020-Jan-20 02:20 350 6 5.4-5.0
2020-Jan-20 01:50 340 6 5.4-5.0
2020-Jan-20 01:20 350 6 5.4-4.0
2020-Jan-20 00:50 020 6 5.4-7.0
2020-Jan-20 00:20 010 4 5.4-5.0
2020-Jan-19 23:50 060 6 5.4-7.0
2020-Jan-19 23:20 350 5 5.4-4.0
2020-Jan-19 22:50 050 5 5.4-6.0
2020-Jan-19 22:20 030 4 5.4-6.0
2020-Jan-19 21:50 040 4 5.4-5.0
2020-Jan-19 21:20 020 5 5.4-3.0
2020-Jan-19 20:50 010 5 5.4-5.0
2020-Jan-19 20:20 350 4 5.4-4.0
2020-Jan-19 19:50 340 7 5.4-2.0
2020-Jan-19 19:20 350 8 5.4-2.0
2020-Jan-19 18:50 010 6 5.4-2.0
2020-Jan-19 18:20 350 8 5.4-2.0
2020-Jan-19 17:50 320 11 5.4-1.0
2020-Jan-19 17:20 330 7 5.4-2.0
2020-Jan-19 16:50 340 9 5.4-1.0
2020-Jan-19 16:20 340 9 5.4-0.0
2020-Jan-19 15:50 340 9 5.4-0.0
2020-Jan-19 15:20 350 13 5.4 2.0
2020-Jan-19 14:50 340 11 5.4 3.0
2020-Jan-19 14:20 340 13 5.4 3.0
2020-Jan-19 13:50 330 13 5.4 4.0
2020-Jan-19 13:20 330 12 5.4 4.0
2020-Jan-19 12:50 330 12 5.4 5.0
2020-Jan-19 12:20 320 11 5.4 5.0
2020-Jan-19 11:50 310 9 5.4 5.0
2020-Jan-19 11:20 5.4 5.0
2020-Jan-19 10:50 080 5 5.4 4.0
2020-Jan-19 10:20 120 4 5.4 3.0
2020-Jan-19 09:50 210 2 5.4 4.0
2020-Jan-19 09:20 200 5 5.4 2.0
2020-Jan-19 08:50 200 4 5.4 1.0
2020-Jan-19 08:20 230 2 5.4-0.0
2020-Jan-19 07:50 5.4-1.0
2020-Jan-19 07:20 5.4-3.0
2020-Jan-19 06:50 5.4-4.0
2020-Jan-19 06:20 040 2 5.4-6.0
2020-Jan-19 05:50 270 4 5.4-7.0
2020-Jan-19 05:20 5.4-7.0